Location: Six Mile Lake
(44.9000°N, 79.7170°W)
Time: 21:55:45
(UTC-04:00)

BEESAT - Pass Details

Date: 01 July 2022
Orbit: 700 x 706 km, 98.6° (Epoch: 11 August)

Event Time Altitude Azimuth Distance (km) Brightness Sun altitude
Rises 22:49:36 0° 3° (N) 3,104 ? -13.6°
Reaches altitude 10° 22:52:09 10° 351° (N) 2,183 ? -13.9°
Maximum altitude 22:56:05 26° 295° (WNW) 1,371 ? -14.3°
Drops below altitude 10° 23:00:00 10° 240° (WSW) 2,173 ? -14.6°
Sets 23:02:32 0° 228° (SW) 3,088 ? -14.9°
